Regional Weather Roundup
Issued by NWS Green Bay, WI

Home | Current Version | Previous Version | Text Only | Print | Product List | Glossary On
Versions: 1 2 3 4 5 6 7 8 9 10 11 12 13 14 15 16 17 18 19 20 21 22 23 24 25 26 27 28 29 30 31 32 33 34 35 36 37 38 39 40 41 42 43 44 45 46 47 48 49 50
000
ASUS43 KGRB 011010
RWRGRB

NORTH-CENTRAL AND NORTHEAST WISCONSIN REGIONAL WEATHER ROUNDUP
NATIONAL WEATHER SERVICE GREEN BAY WI
500 AM CDT SAT NOV 01 2014

WIZ005-009-010>012-018-019-011100-
NORTH CENTRAL WISCONSIN

CITY           SKY/WX    TMP DP  RH WIND       PRES   REMARKS
IRONWOOD       CLEAR     16  14  93 CALM      30.43S
MANITOWISH WTR MOCLDY    10   8  92 CALM      30.43S FOG
ARBOR VITAE    CLEAR     17  15  91 CALM      30.43S
EAGLE RIVER    CLEAR     14  12  94 CALM      30.43S
LAND O LAKES   PTCLDY    13  11  92 CALM      30.43F
RHINELANDER    CLEAR     16  14  92 CALM      30.44R
PHILLIPS       CLEAR     15  14  93 CALM      30.44S
ANTIGO         CLEAR     20  19  95 CALM      30.44R
TOMAHAWK       CLEAR     13  11  91 CALM      30.45R
MERRILL        CLEAR     17  15  94 CALM      30.46R
$$

WIZ013-073-011100-
NORTHEAST WISCONSIN

CITY           SKY/WX    TMP DP  RH WIND       PRES   REMARKS
IRON MOUNTAIN  PTCLDY    25  18  74 CALM      30.43R
MARINETTE      CLOUDY    30  21  69 NW5       30.44S
OCONTO         PTCLDY    29  21  71 NW5       30.45R
$$

WIZ017-030-035>037-045-011100-
CENTRAL WISCONSIN

CITY           SKY/WX    TMP DP  RH WIND       PRES   REMARKS
MEDFORD        CLEAR     18  17  94 CALM      30.44S
WAUSAU         CLEAR     23  19  85 N3        30.45R
MOSINEE        CLEAR     23  21  93 N5        30.47R
MARSHFIELD     CLEAR     23  18  81 CALM      30.45S
WISC RAPIDS    CLEAR     20  16  84 CALM      30.48R
STEVENS POINT  CLEAR     17  14  89 CALM      30.47R
WAUPACA        CLEAR     25  19  78 NW5       30.46S
SHAWANO        CLEAR     27  20  73 NW6       30.47R
CLINTONVILLE   CLEAR     28  19  69 N3        30.46S
$$

WIZ038-039-048-051-011100-
FOX VALLEY

CITY           SKY/WX    TMP DP  RH WIND       PRES   REMARKS
NWS GREEN BAY  CLOUDY    31  21  66 NW12      30.45R
APPLETON       CLEAR     27  19  74 NW8       30.45R
OSHKOSH        CLOUDY    30  20  66 N10       30.45R
FOND DU LAC    CLOUDY    32  20  61 N10       30.44R
$$

WIZ022-050-052-011100-
EAST CENTRAL WISCONSIN

CITY           SKY/WX    TMP DP  RH WIND       PRES   REMARKS
STURGEON BAY   CLOUDY    36  25  64 N10G17    30.43R
MANITOWOC      CLOUDY    34  25  69 N10       30.43R
SHEBOYGAN      CLOUDY    33  23  66 NW12      30.42R
$$

LMZ563-521-522-541>543-011100-
LAKESHORE

STATION/POSITION TIME  TEMP    WIND        PRES    VSBY  WAVE
                       AIR SEA DIR/SP/G                  HT/PER
                 (UTC) (F)     (DEG/KT/KT) (MB)    (MI)  (FT/S)
SHEBOYGAN LKSHOR 1000   36 46  340/ 17/ 21 1030.9R
KEWAUNEE LKSHORE 1000   34     340/  6/  8 1029.3R
NORTHPORT PIER   1000   36     360/ 14/ 18 1030.5S
N MID LAKE BUOY  1000   35 47   10/ 16/ 17 1030.7R         3/ 4
SISTER BAY LKSHO 0900           20/  9/ 12   N/A
CHAMBERS ISLAND  1000   36     340/ 17/ 19 1030.5R
MENOMINEE LKSHOR 1000   34     330/ 12/ 14 1031.1S
$$



USA.gov is the U.S. government's official web portal to all federal, state and local government web resources and services.